<?xml version="1.0" encoding="UTF-8"?>
<gpx
version="1.1"
creator="Kashmir3D 9.350 - http://www.kashmir3d.com"
xmlns:xsi="http://www.w3.org/2001/XMLSchema-instance"
xmlns="http://www.topografix.com/GPX/1/1"
xmlns:kashmir3d="http://www.kashmir3d.com/namespace/kashmir3d"
xsi:schemaLocation="http://www.topografix.com/GPX/1/1 http://www.topografix.com/GPX/1/1/gpx.xsd
	http://www.kashmir3d.com/namespace/kashmir3d http://www.kashmir3d.com/namespace/kashmir3d.xsd">
<trk>
 <name>IKARIYAMA.KML(錨山)</name>
 <number>1</number>
 <extensions>
 <kashmir3d:line_color>0000ff</kashmir3d:line_color>
 <kashmir3d:line_size>3</kashmir3d:line_size>
 <kashmir3d:line_style>1</kashmir3d:line_style>
 <kashmir3d:icon>901001</kashmir3d:icon>
 </extensions>
<trkseg>
<trkpt lat="34.698181" lon="135.179924">
 <ele>151.6</ele>
 <time>2020-03-26T16:16:32Z</time>
</trkpt>
<trkpt lat="34.698215" lon="135.179870">
 <ele>152.5</ele>
 <time>2020-03-26T16:16:32Z</time>
</trkpt>
<trkpt lat="34.698215" lon="135.179667">
 <ele>147</ele>
 <time>2020-03-26T16:16:32Z</time>
</trkpt>
<trkpt lat="34.698224" lon="135.179581">
 <ele>145.3</ele>
 <time>2020-03-26T16:16:32Z</time>
</trkpt>
<trkpt lat="34.698292" lon="135.179527">
 <ele>153.4</ele>
 <time>2020-03-26T16:16:32Z</time>
</trkpt>
<trkpt lat="34.698378" lon="135.179516">
 <ele>162.1</ele>
 <time>2020-03-26T16:16:32Z</time>
</trkpt>
<trkpt lat="34.698447" lon="135.179484">
 <ele>163.6</ele>
 <time>2020-03-26T16:16:32Z</time>
</trkpt>
<trkpt lat="34.698516" lon="135.179430">
 <ele>164.7</ele>
 <time>2020-03-26T16:16:33Z</time>
</trkpt>
<trkpt lat="34.698567" lon="135.179355">
 <ele>163.4</ele>
 <time>2020-03-26T16:16:33Z</time>
</trkpt>
<trkpt lat="34.698601" lon="135.179280">
 <ele>167.9</ele>
 <time>2020-03-26T16:16:33Z</time>
</trkpt>
<trkpt lat="34.698601" lon="135.179184">
 <ele>168.2</ele>
 <time>2020-03-26T16:16:33Z</time>
</trkpt>
<trkpt lat="34.698584" lon="135.179023">
 <ele>174.8</ele>
 <time>2020-03-26T16:16:33Z</time>
</trkpt>
<trkpt lat="34.698584" lon="135.178926">
 <ele>171.7</ele>
 <time>2020-03-26T16:16:33Z</time>
</trkpt>
<trkpt lat="34.698670" lon="135.178851">
 <ele>165.5</ele>
 <time>2020-03-26T16:16:33Z</time>
</trkpt>
<trkpt lat="34.698756" lon="135.178830">
 <ele>167.6</ele>
 <time>2020-03-26T16:16:33Z</time>
</trkpt>
<trkpt lat="34.698833" lon="135.178808">
 <ele>163.2</ele>
 <time>2020-03-26T16:16:33Z</time>
</trkpt>
<trkpt lat="34.698910" lon="135.178873">
 <ele>170.2</ele>
 <time>2020-03-26T16:16:34Z</time>
</trkpt>
<trkpt lat="34.698962" lon="135.178894">
 <ele>170.9</ele>
 <time>2020-03-26T16:16:34Z</time>
</trkpt>
<trkpt lat="34.699005" lon="135.178969">
 <ele>174.8</ele>
 <time>2020-03-26T16:16:34Z</time>
</trkpt>
<trkpt lat="34.699073" lon="135.179066">
 <ele>167.4</ele>
 <time>2020-03-26T16:16:34Z</time>
</trkpt>
<trkpt lat="34.699151" lon="135.179141">
 <ele>166.8</ele>
 <time>2020-03-26T16:16:34Z</time>
</trkpt>
<trkpt lat="34.699237" lon="135.179173">
 <ele>168.9</ele>
 <time>2020-03-26T16:16:34Z</time>
</trkpt>
<trkpt lat="34.699297" lon="135.179173">
 <ele>167.6</ele>
 <time>2020-03-26T16:16:34Z</time>
</trkpt>
<trkpt lat="34.699382" lon="135.179173">
 <ele>169.1</ele>
 <time>2020-03-26T16:16:34Z</time>
</trkpt>
<trkpt lat="34.699520" lon="135.179152">
 <ele>169.9</ele>
 <time>2020-03-26T16:16:34Z</time>
</trkpt>
<trkpt lat="34.699606" lon="135.179109">
 <ele>171</ele>
 <time>2020-03-26T16:16:34Z</time>
</trkpt>
<trkpt lat="34.699691" lon="135.179066">
 <ele>168.2</ele>
 <time>2020-03-26T16:16:35Z</time>
</trkpt>
<trkpt lat="34.699777" lon="135.179023">
 <ele>168.2</ele>
 <time>2020-03-26T16:16:35Z</time>
</trkpt>
<trkpt lat="34.699855" lon="135.179023">
 <ele>174.9</ele>
 <time>2020-03-26T16:16:35Z</time>
</trkpt>
<trkpt lat="34.699966" lon="135.179119">
 <ele>178.7</ele>
 <time>2020-03-26T16:16:35Z</time>
</trkpt>
<trkpt lat="34.700146" lon="135.179044">
 <ele>185.1</ele>
 <time>2020-03-26T16:16:35Z</time>
</trkpt>
<trkpt lat="34.700232" lon="135.179044">
 <ele>186.6</ele>
 <time>2020-03-26T16:16:35Z</time>
</trkpt>
<trkpt lat="34.700318" lon="135.179044">
 <ele>187.3</ele>
 <time>2020-03-26T16:16:35Z</time>
</trkpt>
<trkpt lat="34.700395" lon="135.179023">
 <ele>193.1</ele>
 <time>2020-03-26T16:16:35Z</time>
</trkpt>
<trkpt lat="34.700490" lon="135.179023">
 <ele>198.7</ele>
 <time>2020-03-26T16:16:35Z</time>
</trkpt>
<trkpt lat="34.700576" lon="135.179130">
 <ele>203.5</ele>
 <time>2020-03-26T16:16:35Z</time>
</trkpt>
<trkpt lat="34.700687" lon="135.179237">
 <ele>209.3</ele>
 <time>2020-03-26T16:16:36Z</time>
</trkpt>
<trkpt lat="34.700764" lon="135.179355">
 <ele>213.3</ele>
 <time>2020-03-26T16:16:36Z</time>
</trkpt>
<trkpt lat="34.700842" lon="135.179441">
 <ele>218.9</ele>
 <time>2020-03-26T16:16:36Z</time>
</trkpt>
<trkpt lat="34.700919" lon="135.179570">
 <ele>224.5</ele>
 <time>2020-03-26T16:16:36Z</time>
</trkpt>
<trkpt lat="34.700979" lon="135.179677">
 <ele>230.2</ele>
 <time>2020-03-26T16:16:36Z</time>
</trkpt>
<trkpt lat="34.701022" lon="135.179763">
 <ele>233.2</ele>
 <time>2020-03-26T16:16:36Z</time>
</trkpt>
<trkpt lat="34.701133" lon="135.179752">
 <ele>236.3</ele>
 <time>2020-03-26T16:16:36Z</time>
</trkpt>
<trkpt lat="34.701202" lon="135.179752">
 <ele>238.4</ele>
 <time>2020-03-26T16:16:36Z</time>
</trkpt>
<trkpt lat="34.701245" lon="135.179795">
 <ele>239.2</ele>
 <time>2020-03-26T16:16:36Z</time>
</trkpt>
<trkpt lat="34.701365" lon="135.179763">
 <ele>243.3</ele>
 <time>2020-03-26T16:16:37Z</time>
</trkpt>
<trkpt lat="34.701442" lon="135.179720">
 <ele>247</ele>
 <time>2020-03-26T16:16:37Z</time>
</trkpt>
<trkpt lat="34.701528" lon="135.179742">
 <ele>248.4</ele>
 <time>2020-03-26T16:16:37Z</time>
</trkpt>
<trkpt lat="34.701554" lon="135.179785">
 <ele>251.7</ele>
 <time>2020-03-26T16:16:37Z</time>
</trkpt>
<trkpt lat="34.701640" lon="135.179774">
 <ele>255.3</ele>
 <time>2020-03-26T16:16:37Z</time>
</trkpt>
<trkpt lat="34.701709" lon="135.179742">
 <ele>257.5</ele>
 <time>2020-03-26T16:16:37Z</time>
</trkpt>
<trkpt lat="34.701717" lon="135.179806">
 <ele>259.2</ele>
 <time>2020-03-26T16:16:37Z</time>
</trkpt>
<trkpt lat="34.701743" lon="135.179860">
 <ele>261</ele>
 <time>2020-03-26T16:16:37Z</time>
</trkpt>
<trkpt lat="34.701837" lon="135.179849">
 <ele>262.8</ele>
 <time>2020-03-26T16:16:37Z</time>
</trkpt>
<trkpt lat="34.701906" lon="135.179795">
 <ele>265</ele>
 <time>2020-03-26T16:16:37Z</time>
</trkpt>
<trkpt lat="34.702035" lon="135.179806">
 <ele>266.3</ele>
 <time>2020-03-26T16:16:38Z</time>
</trkpt>
<trkpt lat="34.702215" lon="135.179838">
 <ele>260.8</ele>
 <time>2020-03-26T16:16:38Z</time>
</trkpt>
<trkpt lat="34.702352" lon="135.179881">
 <ele>260.9</ele>
 <time>2020-03-26T16:16:38Z</time>
</trkpt>
<trkpt lat="34.702507" lon="135.179913">
 <ele>264.6</ele>
 <time>2020-03-26T16:16:38Z</time>
</trkpt>
<trkpt lat="34.702618" lon="135.179978">
 <ele>265</ele>
 <time>2020-03-26T16:16:38Z</time>
</trkpt>
<trkpt lat="34.702713" lon="135.179967">
 <ele>267.4</ele>
 <time>2020-03-26T16:16:38Z</time>
</trkpt>
<trkpt lat="34.702799" lon="135.179945">
 <ele>269</ele>
 <time>2020-03-26T16:16:38Z</time>
</trkpt>
<trkpt lat="34.702841" lon="135.180074">
 <ele>263.1</ele>
 <time>2020-03-26T16:16:38Z</time>
</trkpt>
<trkpt lat="34.702970" lon="135.180203">
 <ele>267.4</ele>
 <time>2020-03-26T16:16:38Z</time>
</trkpt>
<trkpt lat="34.703039" lon="135.180214">
 <ele>271.8</ele>
 <time>2020-03-26T16:16:39Z</time>
</trkpt>
<trkpt lat="34.703159" lon="135.180246">
 <ele>279</ele>
 <time>2020-03-26T16:16:39Z</time>
</trkpt>
<trkpt lat="34.703278" lon="135.180361">
 <ele>285.9</ele>
 <time>2020-03-26T16:16:39Z</time>
</trkpt>
<trkpt lat="34.703159" lon="135.180246">
 <ele>279</ele>
 <time>2020-03-26T16:16:39Z</time>
</trkpt>
<trkpt lat="34.703039" lon="135.180214">
 <ele>271.8</ele>
 <time>2020-03-26T16:16:39Z</time>
</trkpt>
<trkpt lat="34.702970" lon="135.180203">
 <ele>267.4</ele>
 <time>2020-03-26T16:16:39Z</time>
</trkpt>
<trkpt lat="34.702841" lon="135.180074">
 <ele>263.1</ele>
 <time>2020-03-26T16:16:39Z</time>
</trkpt>
<trkpt lat="34.702799" lon="135.179945">
 <ele>269</ele>
 <time>2020-03-26T16:16:39Z</time>
</trkpt>
<trkpt lat="34.702713" lon="135.179967">
 <ele>267.4</ele>
 <time>2020-03-26T16:16:39Z</time>
</trkpt>
<trkpt lat="34.702618" lon="135.179978">
 <ele>265</ele>
 <time>2020-03-26T16:16:39Z</time>
</trkpt>
<trkpt lat="34.702507" lon="135.179913">
 <ele>264.6</ele>
 <time>2020-03-26T16:16:40Z</time>
</trkpt>
<trkpt lat="34.702352" lon="135.179881">
 <ele>260.9</ele>
 <time>2020-03-26T16:16:40Z</time>
</trkpt>
<trkpt lat="34.702215" lon="135.179838">
 <ele>260.8</ele>
 <time>2020-03-26T16:16:40Z</time>
</trkpt>
<trkpt lat="34.702035" lon="135.179806">
 <ele>266.3</ele>
 <time>2020-03-26T16:16:40Z</time>
</trkpt>
<trkpt lat="34.701906" lon="135.179795">
 <ele>265</ele>
 <time>2020-03-26T16:16:40Z</time>
</trkpt>
<trkpt lat="34.701837" lon="135.179849">
 <ele>262.8</ele>
 <time>2020-03-26T16:16:40Z</time>
</trkpt>
<trkpt lat="34.701743" lon="135.179860">
 <ele>261</ele>
 <time>2020-03-26T16:16:40Z</time>
</trkpt>
<trkpt lat="34.701717" lon="135.179806">
 <ele>259.2</ele>
 <time>2020-03-26T16:16:40Z</time>
</trkpt>
<trkpt lat="34.701709" lon="135.179742">
 <ele>257.5</ele>
 <time>2020-03-26T16:16:40Z</time>
</trkpt>
<trkpt lat="34.701640" lon="135.179774">
 <ele>255.3</ele>
 <time>2020-03-26T16:16:41Z</time>
</trkpt>
<trkpt lat="34.701554" lon="135.179785">
 <ele>251.7</ele>
 <time>2020-03-26T16:16:41Z</time>
</trkpt>
<trkpt lat="34.701528" lon="135.179742">
 <ele>248.4</ele>
 <time>2020-03-26T16:16:41Z</time>
</trkpt>
<trkpt lat="34.701442" lon="135.179720">
 <ele>247</ele>
 <time>2020-03-26T16:16:41Z</time>
</trkpt>
<trkpt lat="34.701365" lon="135.179763">
 <ele>243.3</ele>
 <time>2020-03-26T16:16:41Z</time>
</trkpt>
<trkpt lat="34.701245" lon="135.179795">
 <ele>239.2</ele>
 <time>2020-03-26T16:16:41Z</time>
</trkpt>
<trkpt lat="34.701202" lon="135.179752">
 <ele>238.4</ele>
 <time>2020-03-26T16:16:41Z</time>
</trkpt>
<trkpt lat="34.701133" lon="135.179752">
 <ele>236.3</ele>
 <time>2020-03-26T16:16:41Z</time>
</trkpt>
<trkpt lat="34.701022" lon="135.179763">
 <ele>233.2</ele>
 <time>2020-03-26T16:16:41Z</time>
</trkpt>
<trkpt lat="34.700979" lon="135.179677">
 <ele>230.2</ele>
 <time>2020-03-26T16:16:41Z</time>
</trkpt>
<trkpt lat="34.700919" lon="135.179570">
 <ele>224.5</ele>
 <time>2020-03-26T16:16:42Z</time>
</trkpt>
<trkpt lat="34.700842" lon="135.179441">
 <ele>218.9</ele>
 <time>2020-03-26T16:16:42Z</time>
</trkpt>
<trkpt lat="34.700764" lon="135.179355">
 <ele>213.3</ele>
 <time>2020-03-26T16:16:42Z</time>
</trkpt>
<trkpt lat="34.700687" lon="135.179237">
 <ele>209.3</ele>
 <time>2020-03-26T16:16:42Z</time>
</trkpt>
<trkpt lat="34.700576" lon="135.179130">
 <ele>203.5</ele>
 <time>2020-03-26T16:16:42Z</time>
</trkpt>
<trkpt lat="34.700490" lon="135.179023">
 <ele>198.7</ele>
 <time>2020-03-26T16:16:42Z</time>
</trkpt>
<trkpt lat="34.700395" lon="135.179023">
 <ele>193.1</ele>
 <time>2020-03-26T16:16:42Z</time>
</trkpt>
<trkpt lat="34.700318" lon="135.179044">
 <ele>187.3</ele>
 <time>2020-03-26T16:16:42Z</time>
</trkpt>
<trkpt lat="34.700232" lon="135.179044">
 <ele>186.6</ele>
 <time>2020-03-26T16:16:42Z</time>
</trkpt>
<trkpt lat="34.700146" lon="135.179044">
 <ele>185.1</ele>
 <time>2020-03-26T16:16:42Z</time>
</trkpt>
<trkpt lat="34.699966" lon="135.179119">
 <ele>178.7</ele>
 <time>2020-03-26T16:16:43Z</time>
</trkpt>
<trkpt lat="34.699855" lon="135.179023">
 <ele>174.9</ele>
 <time>2020-03-26T16:16:43Z</time>
</trkpt>
<trkpt lat="34.699777" lon="135.179023">
 <ele>168.2</ele>
 <time>2020-03-26T16:16:43Z</time>
</trkpt>
<trkpt lat="34.699691" lon="135.179066">
 <ele>168.2</ele>
 <time>2020-03-26T16:16:43Z</time>
</trkpt>
<trkpt lat="34.699606" lon="135.179109">
 <ele>171</ele>
 <time>2020-03-26T16:16:43Z</time>
</trkpt>
<trkpt lat="34.699520" lon="135.179152">
 <ele>169.9</ele>
 <time>2020-03-26T16:16:43Z</time>
</trkpt>
<trkpt lat="34.699382" lon="135.179173">
 <ele>169.1</ele>
 <time>2020-03-26T16:16:43Z</time>
</trkpt>
<trkpt lat="34.699297" lon="135.179173">
 <ele>167.6</ele>
 <time>2020-03-26T16:16:43Z</time>
</trkpt>
<trkpt lat="34.699237" lon="135.179173">
 <ele>168.9</ele>
 <time>2020-03-26T16:16:43Z</time>
</trkpt>
<trkpt lat="34.699151" lon="135.179141">
 <ele>166.8</ele>
 <time>2020-03-26T16:16:44Z</time>
</trkpt>
<trkpt lat="34.699073" lon="135.179066">
 <ele>167.4</ele>
 <time>2020-03-26T16:16:44Z</time>
</trkpt>
<trkpt lat="34.699005" lon="135.178969">
 <ele>174.8</ele>
 <time>2020-03-26T16:16:44Z</time>
</trkpt>
<trkpt lat="34.698962" lon="135.178894">
 <ele>170.9</ele>
 <time>2020-03-26T16:16:44Z</time>
</trkpt>
<trkpt lat="34.698910" lon="135.178873">
 <ele>170.2</ele>
 <time>2020-03-26T16:16:44Z</time>
</trkpt>
<trkpt lat="34.698833" lon="135.178808">
 <ele>163.2</ele>
 <time>2020-03-26T16:16:44Z</time>
</trkpt>
<trkpt lat="34.698756" lon="135.178830">
 <ele>167.6</ele>
 <time>2020-03-26T16:16:44Z</time>
</trkpt>
<trkpt lat="34.698670" lon="135.178851">
 <ele>165.5</ele>
 <time>2020-03-26T16:16:44Z</time>
</trkpt>
<trkpt lat="34.698584" lon="135.178926">
 <ele>171.7</ele>
 <time>2020-03-26T16:16:44Z</time>
</trkpt>
<trkpt lat="34.698584" lon="135.179023">
 <ele>174.8</ele>
 <time>2020-03-26T16:16:44Z</time>
</trkpt>
<trkpt lat="34.698601" lon="135.179184">
 <ele>168.2</ele>
 <time>2020-03-26T16:16:45Z</time>
</trkpt>
<trkpt lat="34.698601" lon="135.179280">
 <ele>167.9</ele>
 <time>2020-03-26T16:16:45Z</time>
</trkpt>
<trkpt lat="34.698567" lon="135.179355">
 <ele>163.4</ele>
 <time>2020-03-26T16:16:45Z</time>
</trkpt>
<trkpt lat="34.698516" lon="135.179430">
 <ele>164.7</ele>
 <time>2020-03-26T16:16:45Z</time>
</trkpt>
<trkpt lat="34.698447" lon="135.179484">
 <ele>163.6</ele>
 <time>2020-03-26T16:16:45Z</time>
</trkpt>
<trkpt lat="34.698378" lon="135.179516">
 <ele>162.1</ele>
 <time>2020-03-26T16:16:45Z</time>
</trkpt>
<trkpt lat="34.698292" lon="135.179527">
 <ele>153.4</ele>
 <time>2020-03-26T16:16:45Z</time>
</trkpt>
<trkpt lat="34.698224" lon="135.179581">
 <ele>145.3</ele>
 <time>2020-03-26T16:16:45Z</time>
</trkpt>
<trkpt lat="34.698215" lon="135.179667">
 <ele>147</ele>
 <time>2020-03-26T16:16:45Z</time>
</trkpt>
<trkpt lat="34.698215" lon="135.179870">
 <ele>152.5</ele>
 <time>2020-03-26T16:16:46Z</time>
</trkpt>
<trkpt lat="34.698181" lon="135.179924">
 <ele>151.6</ele>
 <time>2020-03-26T16:16:46Z</time>
</trkpt>
</trkseg>
</trk>
</gpx>

